SCP
0 0 0 0 0 1 1 0 1 0 -0 1 0 -0 0 1 1 1 1 1 1 1 1 1 1 1 1 0 0 0 0 0 0 0 0 0 0 0 0 0 0 0 0
0 0 0 0 0 0 0 0 0 1 0 0 -0 0 0 0 0 1 0 1 1 1 1 1 1 1 1 1 1 1 0 0 0 0 0 0 0 0 0 0 0 0 0
0 0 0 0 0 0 0 0 0 0 0 0 0 0 0 0 0 0 0 1 0 1 1 1 1 1 1 1 1 1 1 0 0 0 0 0 0 0 0 0 0 0 0
0 0 0 0 0 0 0 0 0 0 0 0 0 0 0 0 0 0 0 0 1 -0 1 1 0 1 1 1 1 1 1 1 0 0 0 0 0 0 0 0 0 0 0
0 0 0 0 0 0 0 0 0 0 0 0 0 0 0 0 0 0 0 1 0 0 0 1 1 0 0 0 1 1 1 1 0 0 0 0 0 0 0 0 0 0 0
0 0 0 0 0 0 0 0 0 0 0 0 0 0 0 0 0 0 0 0 0 0 0 1 1 1 0 0 1 1 0 0 0 0 0 0 0 0 0 0 0 0 0
0 0 0 0 0 0 0 0 0 0 0 0 0 0 0 0 0 0 0 0 0 0 0 2 1 1 2 0 0 0 0 0 0 0 0 0 0 0 0 0 0 0 0
0 0 0 0 0 0 0 0 0 0 0 0 0 0 0 0 0 1 1 1 0 1 1 3 2 1 1 1 1 0 0 0 0 0 0 0 0 0 0 0 0 0 0
0 0 0 0 1 0 0 0 0 0 0 0 0 0 0 0 0 1 2 1 0 1 1 1 0 0 1 1 1 0 0 0 0 0 0 0 0 0 0 0 0 0 0
0 0 0 0 2 0 1 1 0 0 0 0 0 0 1 0 0 0 0 1 1 -0 0 0 0 0 0 0 0 0 0 0 0 0 0 0 0 0 0 0 0 0 0
1 0 0 1 1 1 1 2 1 0 0 0 0 0 0 0 0 0 0 0 1 1 1 0 0 0 0 0 0 0 0 0 0 0 0 0 0 0 0 0 0 0 0
0 1 0 2 2 1 1 1 1 0 0 0 0 0 0 0 0 0 0 0 0 0 0 0 0 0 0 0 0 0 0 0 0 0 0 0 0 0 0 0 0 0 0
0 0 2 2 1 2 1 1 2 1 1 0 0 0 0 0 0 0 0 0 0 0 0 0 0 0 0 0 0 0 0 0 0 0 0 0 0 0 0 0 0 0 0
0 1 1 2 2 2 2 2 1 1 1 1 0 0 0 0 0 0 0 0 0 0 1 0 0 0 0 0 0 0 0 0 0 0 0 0 0 0 0 0 0 0 0
0 0 1 1 1 1 2 3 2 2 2 2 2 1 0 0 0 0 0 0 0 0 0 0 0 0 0 0 0 0 0 0 0 0 0 0 0 0 0 0 0 0 0
0 0 0 0 1 1 1 2 2 2 1 1 1 1 1 0 0 0 0 0 0 0 0 0 0 0 0 0 0 0 0 0 0 0 0 0 0 0 0 0 0 0 0
0 0 0 0 0 0 0 1 2 1 1 1 1 0 0 0 0 0 0 0 0 0 0 0 0 0 0 0 0 0 0 0 0 0 0 0 0 0 0 0 0 0 0
0 0 0 0 0 0 0 0 0 0 0 1 0 0 0 0 0 0 0 0 0 0 1 0 0 0 0 0 0 0 0 0 0 0 0 0 0 0 0 0 0 0 0
0 0 0 0 0 0 0 0 0 0 0 0 0 0 0 0 0 0 0 0 0 0 1 0 0 0 0 0 0 0 0 0 0 0 0 0 0 0 0 0 -0 -0 -0
0 0 0 0 0 0 0 0 0 0 0 0 0 0 0 0 0 0 0 0 0 0 1 0 0 0 0 0 0 0 0 0 0 0 -0 0 0 0 -0 -0 -0 -0 -0
0 0 0 0 0 0 0 0 0 0 0 0 0 0 0 0 0 0 0 0 0 1 0 0 0 0 0 0 0 0 0 0 0 0 -0 0 0 0 -0 -0 -0 -0 -0
0 0 0 0 0 0 0 0 0 0 0 0 0 0 0 0 0 0 0 0 0 0 0 0 0 0 0 0 0 0 0 0 0 -0 0 0 0 -0 0 0 -0 -0 -0
0 0 0 0 0 0 0 0 0 0 0 0 0 0 0 0 0 0 0 0 -0 -0 0 0 0 0 0 0 0 0 0 0 0 0 0 -0 -0 -0 0 0 -0 -0 -0
0 0 0 0 0 0 0 0 -0 -0 -0 0 0 0 0 0 0 0 0 0 0 0 0 0 0 0 0 0 0 0 0 0 -0 0 0 -0 -0 -0 0 0 -0 0 0
0 0 -0 -0 0 0 -0 -0 -0 -0 -0 0 -0 -0 0 0 0 0 0 0 0 0 0 0 0 0 0 0 0 0 0 -0 -0 -0 -0 -0 0 0 0 0 0 0 0
0 -0 -0 -0 -0 -0 -0 -0 -0 -0 -0 -0 -0 0 0 0 0 0 0 0 0 0 0 0 0 0 0 0 0 -0 -0 -0 -0 -0 -0 0 0 0 0 0 0 -0 -0
Wind_Speed_500mb
23 13 16 18 23 29 39 39 32 38 31 28 28 33 28 37 34 40 32 39 47 44 43 44 46 46 45 44 45 50 53 49 42 44 38 33 31 31 33 34 37 38 38
15 4 11 15 17 22 27 34 37 44 51 41 33 33 36 40 40 37 41 37 38 49 45 43 40 46 52 48 47 49 53 57 54 48 43 38 35 33 33 34 35 38 38
7 1 9 9 13 17 20 26 32 35 42 44 41 44 51 48 43 46 47 51 41 51 50 47 40 43 41 46 49 50 53 57 61 57 48 42 42 39 33 32 33 37 36
7 4 6 10 16 14 15 18 21 25 29 36 43 45 46 45 42 40 43 40 44 53 48 41 47 41 44 47 53 56 56 61 64 64 59 56 53 40 32 37 35 37 34
6 7 11 11 15 13 14 16 19 20 25 29 31 35 41 45 46 51 51 40 46 41 39 45 42 48 48 47 52 58 60 67 70 74 78 74 46 23 26 38 35 38 36
9 9 12 25 20 15 14 21 25 23 24 26 32 35 38 38 46 44 36 32 39 37 34 33 37 44 38 45 44 44 54 66 83 74 60 62 20 17 33 40 37 38 32
9 18 12 17 21 17 34 31 26 23 23 23 30 33 36 37 40 38 35 43 37 39 33 35 30 29 36 37 40 38 37 47 32 30 42 39 24 27 37 43 42 40 42
18 18 22 22 24 26 24 43 35 33 23 22 26 30 38 34 35 35 33 28 24 27 23 22 24 26 29 32 37 40 42 46 46 49 15 20 27 35 32 33 36 40 22
21 27 31 34 37 39 31 33 30 35 26 25 22 24 30 32 35 20 25 26 18 18 19 37 29 33 38 39 37 36 35 34 35 27 24 23 29 26 27 29 27 22 19
36 39 43 42 45 44 45 43 38 31 29 26 22 23 24 28 30 34 32 31 29 16 27 29 33 35 36 35 30 26 25 32 34 28 23 27 27 24 24 21 22 19 22
49 45 49 50 48 47 46 45 44 41 32 26 22 22 23 25 29 31 41 38 23 15 20 36 39 43 37 32 25 24 30 32 35 35 24 20 22 26 26 28 20 24 22
48 46 44 47 50 50 49 47 41 36 39 34 24 21 20 23 27 29 36 39 37 33 31 44 40 43 32 24 22 30 33 37 41 25 14 21 28 30 32 22 24 28 26
51 48 44 47 41 50 47 51 51 46 35 31 27 23 22 22 24 25 32 39 39 35 36 41 45 38 22 22 25 33 38 46 34 17 22 25 22 17 16 21 26 29 30
52 58 64 60 59 55 58 61 61 49 45 35 30 27 25 23 23 24 29 33 41 38 31 32 40 32 24 24 29 30 35 36 29 21 19 13 12 14 19 23 26 28 29
56 60 61 61 59 56 52 64 69 61 52 45 37 31 31 24 24 25 27 31 37 41 37 35 30 30 22 28 33 31 26 24 16 11 4 8 13 18 19 21 24 25 27
66 69 67 66 70 73 70 68 75 76 66 52 42 37 35 31 30 28 28 32 36 39 44 31 32 32 27 34 36 28 21 14 7 2 7 12 14 17 22 24 23 24 25
72 76 72 73 70 69 73 72 76 77 66 59 48 41 40 39 37 32 32 33 39 40 45 41 38 33 33 40 37 26 19 12 9 8 11 13 17 22 24 23 22 20 22
53 49 52 58 64 63 64 71 70 76 76 62 56 52 46 39 41 39 35 39 41 42 37 40 40 39 36 42 32 28 19 13 11 13 15 21 23 21 29 27 26 25 23
62 54 55 57 55 55 54 57 66 59 62 62 55 54 49 44 45 44 43 42 38 39 43 49 41 40 42 44 38 32 21 14 14 14 18 16 22 26 30 29 29 28 26
59 56 51 52 53 52 55 69 59 56 58 53 62 65 58 50 52 49 45 42 40 45 41 44 43 46 50 48 45 35 28 21 13 12 14 18 16 23 30 38 39 33 30
58 55 59 54 52 56 51 54 65 57 54 59 56 61 64 61 60 57 46 42 38 41 51 42 45 52 57 60 57 48 36 32 23 16 19 9 13 17 29 39 43 41 38
59 61 65 56 58 55 58 54 53 55 56 54 68 70 61 59 59 64 65 61 52 33 47 49 45 55 61 65 62 52 45 35 27 24 14 3 10 15 29 41 45 46 46
58 58 57 53 58 58 55 58 53 54 59 58 64 49 49 47 51 53 50 65 62 59 39 47 44 57 54 69 70 57 42 29 24 25 15 10 5 14 24 36 44 49 51
49 50 53 55 54 50 50 49 55 61 63 61 59 55 54 51 47 40 33 40 42 58 67 41 45 38 57 66 66 45 37 37 27 21 15 13 4 10 17 26 36 46 50
51 49 47 44 44 44 43 37 39 43 48 55 56 61 57 49 49 42 42 42 36 42 41 46 42 40 52 55 52 57 50 40 28 24 18 14 12 12 14 16 30 42 48
50 43 38 36 37 37 40 45 45 51 54 52 48 49 51 50 42 47 42 42 31 42 43 50 46 35 32 42 59 35 34 38 24 22 19 16 14 6 10 20 19 36 51
Wind_Direction_500mb
253 270 257 271 273 277 282 285 289 294 259 266 271 258 274 271 277 290 266 280 288 295 301 276 274 274 276 280 276 277 271 271 267 270 274 273 277 286 302 309 311 321 323
270 309 312 295 285 281 281 290 291 292 285 302 293 284 283 265 277 279 285 284 286 293 298 295 283 281 273 272 277 277 278 273 274 272 270 267 270 275 287 299 307 314 321
287 282 298 320 294 288 307 297 294 293 294 297 283 271 264 272 263 271 275 272 280 289 283 284 283 287 277 270 278 278 272 272 272 274 269 264 261 262 271 290 304 311 317
309 333 317 306 299 329 307 302 309 306 294 288 285 284 284 277 278 275 271 278 273 275 293 292 285 290 285 282 280 275 272 271 271 267 259 256 257 262 285 292 300 312 311
355 26 331 324 332 325 312 307 308 300 302 299 290 283 281 278 278 273 265 272 281 291 283 289 289 298 291 284 284 279 273 272 273 267 252 252 253 275 299 297 298 309 306
336 331 327 314 334 327 313 292 306 300 301 299 295 289 281 275 274 278 288 276 275 275 281 279 290 294 298 290 286 286 277 274 265 233 193 235 218 275 300 300 291 298 298
297 311 309 305 316 317 300 312 315 317 305 302 296 295 291 283 275 269 266 268 268 270 271 268 282 286 273 290 292 289 283 278 185 288 301 249 284 307 295 298 286 301 294
292 303 296 293 300 293 304 301 308 315 306 298 293 299 296 291 274 261 256 264 263 265 270 242 258 281 299 294 286 287 281 278 273 263 253 258 279 285 294 298 291 296 302
284 289 287 285 281 285 292 278 292 290 294 290 288 282 294 291 318 286 295 274 239 236 282 286 296 299 298 295 296 289 290 289 288 229 234 261 282 294 306 295 299 296 296
278 281 282 272 268 271 267 268 283 267 288 284 277 266 265 279 288 295 287 288 306 315 284 318 308 309 311 308 313 302 288 282 269 269 265 286 315 314 298 287 281 292 289
280 284 285 272 269 265 266 269 254 267 262 273 269 271 268 265 270 269 289 292 285 282 297 307 305 312 310 313 309 288 287 280 271 259 281 322 303 283 278 280 298 297 292
283 278 269 276 264 261 254 257 251 250 255 245 255 258 266 268 269 272 278 280 283 291 295 303 305 309 307 302 282 277 280 279 283 263 306 303 297 294 297 311 306 297 295
280 277 274 272 274 265 256 246 249 241 242 250 249 255 257 262 269 271 274 278 279 278 290 296 307 312 291 280 278 268 263 249 238 284 297 297 298 311 315 305 304 304 304
275 274 273 273 267 265 260 247 239 240 244 244 246 250 257 263 268 271 273 277 278 274 266 279 292 299 285 278 255 262 248 239 261 281 289 306 339 328 319 317 317 313 301
278 278 275 273 265 262 259 250 241 235 234 234 236 247 258 262 265 271 271 269 269 276 274 275 274 282 271 252 258 257 248 252 260 266 318 351 340 342 337 333 325 321 309
281 280 275 269 268 262 260 255 243 236 230 231 234 236 245 255 263 273 277 270 262 262 268 276 262 274 257 248 243 238 229 213 197 87 40 9 354 348 349 341 338 338 330
282 273 273 268 264 264 257 258 244 236 231 235 233 234 241 252 264 268 274 271 262 257 260 257 264 261 252 237 230 213 199 182 133 89 45 26 19 17 11 1 354 344 347
282 281 278 274 267 264 259 259 250 237 224 224 235 245 245 248 259 268 272 273 258 252 267 254 256 246 238 223 216 190 164 161 118 92 75 55 43 31 27 17 10 3 354
283 276 276 273 271 264 268 257 249 238 240 239 232 239 244 248 254 259 262 260 257 258 250 252 247 238 214 208 198 188 173 147 138 120 84 68 54 39 31 20 15 9 7
276 277 277 274 272 267 261 262 250 235 237 242 245 239 243 246 252 257 262 257 249 248 252 247 245 224 207 204 198 187 179 176 168 135 99 62 44 37 31 29 30 28 26
276 275 274 266 270 268 260 262 261 251 240 249 251 252 247 246 248 249 248 250 239 245 243 241 223 202 200 199 196 195 192 170 165 138 71 63 44 22 29 32 32 28 25
280 277 282 274 262 265 263 254 246 251 250 252 252 248 242 244 248 247 238 228 223 232 239 230 228 217 210 207 195 194 182 163 159 141 150 159 56 27 35 31 30 33 29
287 281 283 276 267 257 262 257 255 252 252 248 249 245 239 242 247 247 247 239 222 221 233 235 243 229 224 210 198 189 175 155 156 148 152 122 81 5 25 29 24 30 29
289 284 285 277 273 260 260 255 247 247 250 251 241 244 241 241 245 237 233 236 234 223 230 230 245 251 224 206 203 182 148 128 139 146 131 118 105 13 25 32 26 28 29
290 290 286 283 271 261 258 254 249 250 246 246 249 246 243 241 242 227 222 224 223 218 223 229 243 233 220 209 182 151 135 135 151 152 154 130 122 90 57 36 19 23 32
296 293 288 276 275 268 258 251 245 244 243 242 246 243 237 231 232 224 221 213 223 212 212 199 195 199 210 183 158 139 125 151 152 155 166 160 173 296 72 41 49 60 51
Wind_Speed_850mb
23 13 16 18 23 29 39 39 32 38 31 28 28 33 28 37 34 40 32 39 47 44 43 44 46 46 45 44 45 50 53 49 42 44 38 33 31 31 33 34 37 38 38
15 4 11 15 17 22 27 34 37 44 51 41 33 33 36 40 40 37 41 37 38 49 45 43 40 46 52 48 47 49 53 57 54 48 43 38 35 33 33 34 35 38 38
7 1 9 9 13 17 20 26 32 35 42 44 41 44 51 48 43 46 47 51 41 51 50 47 40 43 41 46 49 50 53 57 61 57 48 42 42 39 33 32 33 37 36
7 4 6 10 16 14 15 18 21 25 29 36 43 45 46 45 42 40 43 40 44 53 48 41 47 41 44 47 53 56 56 61 64 64 59 56 53 40 32 37 35 37 34
6 7 11 11 15 13 14 16 19 20 25 29 31 35 41 45 46 51 51 40 46 41 39 45 42 48 48 47 52 58 60 67 70 74 78 74 46 23 26 38 35 38 36
9 9 12 25 20 15 14 21 25 23 24 26 32 35 38 38 46 44 36 32 39 37 34 33 37 44 38 45 44 44 54 66 83 74 60 62 20 17 33 40 37 38 32
9 18 12 17 21 17 34 31 26 23 23 23 30 33 36 37 40 38 35 43 37 39 33 35 30 29 36 37 40 38 37 47 32 30 42 39 24 27 37 43 42 40 42
18 18 22 22 24 26 24 43 35 33 23 22 26 30 38 34 35 35 33 28 24 27 23 22 24 26 29 32 37 40 42 46 46 49 15 20 27 35 32 33 36 40 22
21 27 31 34 37 39 31 33 30 35 26 25 22 24 30 32 35 20 25 26 18 18 19 37 29 33 38 39 37 36 35 34 35 27 24 23 29 26 27 29 27 22 19
36 39 43 42 45 44 45 43 38 31 29 26 22 23 24 28 30 34 32 31 29 16 27 29 33 35 36 35 30 26 25 32 34 28 23 27 27 24 24 21 22 19 22
49 45 49 50 48 47 46 45 44 41 32 26 22 22 23 25 29 31 41 38 23 15 20 36 39 43 37 32 25 24 30 32 35 35 24 20 22 26 26 28 20 24 22
48 46 44 47 50 50 49 47 41 36 39 34 24 21 20 23 27 29 36 39 37 33 31 44 40 43 32 24 22 30 33 37 41 25 14 21 28 30 32 22 24 28 26
51 48 44 47 41 50 47 51 51 46 35 31 27 23 22 22 24 25 32 39 39 35 36 41 45 38 22 22 25 33 38 46 34 17 22 25 22 17 16 21 26 29 30
52 58 64 60 59 55 58 61 61 49 45 35 30 27 25 23 23 24 29 33 41 38 31 32 40 32 24 24 29 30 35 36 29 21 19 13 12 14 19 23 26 28 29
56 60 61 61 59 56 52 64 69 61 52 45 37 31 31 24 24 25 27 31 37 41 37 35 30 30 22 28 33 31 26 24 16 11 4 8 13 18 19 21 24 25 27
66 69 67 66 70 73 70 68 75 76 66 52 42 37 35 31 30 28 28 32 36 39 44 31 32 32 27 34 36 28 21 14 7 2 7 12 14 17 22 24 23 24 25
72 76 72 73 70 69 73 72 76 77 66 59 48 41 40 39 37 32 32 33 39 40 45 41 38 33 33 40 37 26 19 12 9 8 11 13 17 22 24 23 22 20 22
53 49 52 58 64 63 64 71 70 76 76 62 56 52 46 39 41 39 35 39 41 42 37 40 40 39 36 42 32 28 19 13 11 13 15 21 23 21 29 27 26 25 23
62 54 55 57 55 55 54 57 66 59 62 62 55 54 49 44 45 44 43 42 38 39 43 49 41 40 42 44 38 32 21 14 14 14 18 16 22 26 30 29 29 28 26
59 56 51 52 53 52 55 69 59 56 58 53 62 65 58 50 52 49 45 42 40 45 41 44 43 46 50 48 45 35 28 21 13 12 14 18 16 23 30 38 39 33 30
58 55 59 54 52 56 51 54 65 57 54 59 56 61 64 61 60 57 46 42 38 41 51 42 45 52 57 60 57 48 36 32 23 16 19 9 13 17 29 39 43 41 38
59 61 65 56 58 55 58 54 53 55 56 54 68 70 61 59 59 64 65 61 52 33 47 49 45 55 61 65 62 52 45 35 27 24 14 3 10 15 29 41 45 46 46
58 58 57 53 58 58 55 58 53 54 59 58 64 49 49 47 51 53 50 65 62 59 39 47 44 57 54 69 70 57 42 29 24 25 15 10 5 14 24 36 44 49 51
49 50 53 55 54 50 50 49 55 61 63 61 59 55 54 51 47 40 33 40 42 58 67 41 45 38 57 66 66 45 37 37 27 21 15 13 4 10 17 26 36 46 50
51 49 47 44 44 44 43 37 39 43 48 55 56 61 57 49 49 42 42 42 36 42 41 46 42 40 52 55 52 57 50 40 28 24 18 14 12 12 14 16 30 42 48
50 43 38 36 37 37 40 45 45 51 54 52 48 49 51 50 42 47 42 42 31 42 43 50 46 35 32 42 59 35 34 38 24 22 19 16 14 6 10 20 19 36 51
Wind_Direction_850mb
253 270 257 271 273 277 282 285 289 294 259 266 271 258 274 271 277 290 266 280 288 295 301 276 274 274 276 280 276 277 271 271 267 270 274 273 277 286 302 309 311 321 323
270 309 312 295 285 281 281 290 291 292 285 302 293 284 283 265 277 279 285 284 286 293 298 295 283 281 273 272 277 277 278 273 274 272 270 267 270 275 287 299 307 314 321
287 282 298 320 294 288 307 297 294 293 294 297 283 271 264 272 263 271 275 272 280 289 283 284 283 287 277 270 278 278 272 272 272 274 269 264 261 262 271 290 304 311 317
309 333 317 306 299 329 307 302 309 306 294 288 285 284 284 277 278 275 271 278 273 275 293 292 285 290 285 282 280 275 272 271 271 267 259 256 257 262 285 292 300 312 311
355 26 331 324 332 325 312 307 308 300 302 299 290 283 281 278 278 273 265 272 281 291 283 289 289 298 291 284 284 279 273 272 273 267 252 252 253 275 299 297 298 309 306
336 331 327 314 334 327 313 292 306 300 301 299 295 289 281 275 274 278 288 276 275 275 281 279 290 294 298 290 286 286 277 274 265 233 193 235 218 275 300 300 291 298 298
297 311 309 305 316 317 300 312 315 317 305 302 296 295 291 283 275 269 266 268 268 270 271 268 282 286 273 290 292 289 283 278 185 288 301 249 284 307 295 298 286 301 294
292 303 296 293 300 293 304 301 308 315 306 298 293 299 296 291 274 261 256 264 263 265 270 242 258 281 299 294 286 287 281 278 273 263 253 258 279 285 294 298 291 296 302
284 289 287 285 281 285 292 278 292 290 294 290 288 282 294 291 318 286 295 274 239 236 282 286 296 299 298 295 296 289 290 289 288 229 234 261 282 294 306 295 299 296 296
278 281 282 272 268 271 267 268 283 267 288 284 277 266 265 279 288 295 287 288 306 315 284 318 308 309 311 308 313 302 288 282 269 269 265 286 315 314 298 287 281 292 289
280 284 285 272 269 265 266 269 254 267 262 273 269 271 268 265 270 269 289 292 285 282 297 307 305 312 310 313 309 288 287 280 271 259 281 322 303 283 278 280 298 297 292
283 278 269 276 264 261 254 257 251 250 255 245 255 258 266 268 269 272 278 280 283 291 295 303 305 309 307 302 282 277 280 279 283 263 306 303 297 294 297 311 306 297 295
280 277 274 272 274 265 256 246 249 241 242 250 249 255 257 262 269 271 274 278 279 278 290 296 307 312 291 280 278 268 263 249 238 284 297 297 298 311 315 305 304 304 304
275 274 273 273 267 265 260 247 239 240 244 244 246 250 257 263 268 271 273 277 278 274 266 279 292 299 285 278 255 262 248 239 261 281 289 306 339 328 319 317 317 313 301
278 278 275 273 265 262 259 250 241 235 234 234 236 247 258 262 265 271 271 269 269 276 274 275 274 282 271 252 258 257 248 252 260 266 318 351 340 342 337 333 325 321 309
281 280 275 269 268 262 260 255 243 236 230 231 234 236 245 255 263 273 277 270 262 262 268 276 262 274 257 248 243 238 229 213 197 87 40 9 354 348 349 341 338 338 330
282 273 273 268 264 264 257 258 244 236 231 235 233 234 241 252 264 268 274 271 262 257 260 257 264 261 252 237 230 213 199 182 133 89 45 26 19 17 11 1 354 344 347
282 281 278 274 267 264 259 259 250 237 224 224 235 245 245 248 259 268 272 273 258 252 267 254 256 246 238 223 216 190 164 161 118 92 75 55 43 31 27 17 10 3 354
283 276 276 273 271 264 268 257 249 238 240 239 232 239 244 248 254 259 262 260 257 258 250 252 247 238 214 208 198 188 173 147 138 120 84 68 54 39 31 20 15 9 7
276 277 277 274 272 267 261 262 250 235 237 242 245 239 243 246 252 257 262 257 249 248 252 247 245 224 207 204 198 187 179 176 168 135 99 62 44 37 31 29 30 28 26
276 275 274 266 270 268 260 262 261 251 240 249 251 252 247 246 248 249 248 250 239 245 243 241 223 202 200 199 196 195 192 170 165 138 71 63 44 22 29 32 32 28 25
280 277 282 274 262 265 263 254 246 251 250 252 252 248 242 244 248 247 238 228 223 232 239 230 228 217 210 207 195 194 182 163 159 141 150 159 56 27 35 31 30 33 29
287 281 283 276 267 257 262 257 255 252 252 248 249 245 239 242 247 247 247 239 222 221 233 235 243 229 224 210 198 189 175 155 156 148 152 122 81 5 25 29 24 30 29
289 284 285 277 273 260 260 255 247 247 250 251 241 244 241 241 245 237 233 236 234 223 230 230 245 251 224 206 203 182 148 128 139 146 131 118 105 13 25 32 26 28 29
290 290 286 283 271 261 258 254 249 250 246 246 249 246 243 241 242 227 222 224 223 218 223 229 243 233 220 209 182 151 135 135 151 152 154 130 122 90 57 36 19 23 32
296 293 288 276 275 268 258 251 245 244 243 242 246 243 237 231 232 224 221 213 223 212 212 199 195 199 210 183 158 139 125 151 152 155 166 160 173 296 72 41 49 60 51